Tracking 30696 objects as of 15-Jun-2025
HD Live streaming from Space Station
objects crossing your sky now

TITAN 3C TRANSTAGE DEB

Track TITAN 3C TRANSTAGE DEB now!


NORAD ID: 26528
Int'l Code: 1965-108AP
Perigee: 922.2 km
Apogee: 30,115.2 km
Inclination: 27.4 °
Period: 537.2 minutes
Semi major axis: 21889 km
RCS: 0.117 m2 (medium)
Launch date: December 21, 1965
Source: United States (US)
Launch site: AIR FORCE EASTERN TEST RANGE (AFETR)

Note: This is SATELLITE DEBRIS
Your satellite tracking list
Your tracking list is empty




NASA's NSSDC Master Catalog

Two Line Element Set (TLE):
1 26528U 65108AP  25165.91853369 -.00000020  00000-0  38691-2 0  9998
2 26528  27.4234  67.0688 6668213  66.2640   2.2644  2.68067061259086
Source of the keplerian elements: AFSPC